Location: Berkeley
(37.8716°N, 122.2727°W)
Time: 23:01:41
(UTC-07:00)

Tiangong - Pass Details

Date: 01 October 2021
Orbit: 382 x 385 km, 41.5° (Epoch: 16 October)

Event Time Altitude Azimuth Distance (km) Brightness Sun altitude
Exits shadow 04:31:03 11° 69° (ENE) 1,368 4.7 -30.6°
Drops below altitude 10° 04:31:07 10° 69° (ENE) 1,398 4.8 -30.6°
Sets 04:33:12 0° 71° (ENE) 2,251 6.1 -30.2°
